STARLINK-6093

decayed
NORAD ID: 56099 Int'l Des: 2023-046 Owner: SPXS Country: US Constellation: starlink
LEOCIRCULAR
Gruppe

Über STARLINK-6093

Beschreibung wird geladen...

Höhenverlauf

Altitude vs Time

uPlot chart will show altitude changes over time

Zweizeiliger Elementsatz

1 56099U 23046G 25176.13828236 .04428180 91059-5 62927-3 0 9993
2 56099 42.9938 86.2521 0011762 235.3878 275.2088 16.33612094124210
Epoch: 25. Juni 2025 • Age: 1998 hours

Aktueller Status

Position data unavailable
Startdatum 29. März 2023
Alter 2.4 years
Verglühungsdatum 26. Juni 2025
Typ internet

Technische Details

Klassifizierung Payload
Masse 305.00 kg
Trockenmasse 290.00 kg
Gesamtmasse 305.00 kg
Länge 0.20 m
Durchmesser 2.80 m
Spannweite 9.00 m
Form Box + pan
Hersteller SPXS
Bus-Typ Starlink
Phasenstatus Unknown Transfer Status
Besitzer/Staat SPXS/US

Große Konstellationen

Loading constellations...